Time,TemperatureF,DewpointF,PressureIn,WindDirection,WindDirectionDegrees,WindSpeedMPH,WindSpeedGustMPH,Humidity,HourlyPrecipIn,Conditions,Clouds,dailyrainin,SoftwareType,DateUTC
2013-01-31 00:06:00,8.1,1.0,29.81,NW,307,3.0,-999.0,72,-99.99,,,0.00,weatherlink.com 1.10,2013-01-31 06:06:00,
2013-01-31 00:21:00,7.6,0.0,29.81,NNW,348,2.0,-999.0,72,-99.99,,,0.00,weatherlink.com 1.10,2013-01-31 06:21:00,
2013-01-31 00:36:00,7.2,0.0,29.82,WNW,291,5.0,-999.0,73,-99.99,,,0.00,weatherlink.com 1.10,2013-01-31 06:36:00,
2013-01-31 00:51:00,6.7,0.0,29.82,NNW,338,5.0,-999.0,74,-99.99,,,0.00,weatherlink.com 1.10,2013-01-31 06:51:00,
2013-01-31 01:06:00,6.3,-1.0,29.82,West,278,3.0,-999.0,73,-99.99,,,0.00,weatherlink.com 1.10,2013-01-31 07:06:00,
2013-01-31 01:21:00,6.1,-1.0,29.83,WNW,299,6.0,-999.0,72,-99.99,,,0.00,weatherlink.com 1.10,2013-01-31 07:21:00,
2013-01-31 01:36:00,6.1,-1.0,29.83,West,274,5.0,-999.0,71,-99.99,,,0.00,weatherlink.com 1.10,2013-01-31 07:36:00,
2013-01-31 01:51:00,6.1,-1.0,29.84,NW,318,9.0,-999.0,71,-99.99,,,0.00,weatherlink.com 1.10,2013-01-31 07:51:00,
2013-01-31 02:06:00,6.1,-2.0,29.84,SW,229,2.0,-999.0,70,-99.99,,,0.00,weatherlink.com 1.10,2013-01-31 08:06:00,
2013-01-31 02:21:00,5.8,-2.0,29.85,NW,322,10.0,-999.0,69,-99.99,,,0.00,weatherlink.com 1.10,2013-01-31 08:21:00,
2013-01-31 02:36:00,5.8,-2.0,29.85,NW,321,3.0,-999.0,69,-99.99,,,0.00,weatherlink.com 1.10,2013-01-31 08:36:00,
2013-01-31 02:51:00,5.4,-3.0,29.85,NNW,342,5.0,-999.0,68,-99.99,,,0.00,weatherlink.com 1.10,2013-01-31 08:51:00,
2013-01-31 03:06:00,5.2,-3.0,29.85,WNW,285,8.0,-999.0,68,-99.99,,,0.00,weatherlink.com 1.10,2013-01-31 09:06:00,
2013-01-31 03:21:00,5.2,-3.0,29.85,West,261,2.0,-999.0,68,-99.99,,,0.00,weatherlink.com 1.10,2013-01-31 09:21:00,
2013-01-31 03:36:00,5.0,-3.0,29.85,NNW,335,1.0,-999.0,68,-99.99,,,0.00,weatherlink.com 1.10,2013-01-31 09:36:00,
2013-01-31 03:51:00,4.7,-4.0,29.85,WNW,303,9.0,-999.0,68,-99.99,,,0.00,weatherlink.com 1.10,2013-01-31 09:51:00,
2013-01-31 04:06:00,3.9,-4.0,29.86,NW,321,2.0,-999.0,70,-99.99,,,0.00,weatherlink.com 1.10,2013-01-31 10:06:00,
2013-01-31 04:21:00,3.5,-4.0,29.87,WSW,250,5.0,-999.0,70,-99.99,,,0.00,weatherlink.com 1.10,2013-01-31 10:21:00,
2013-01-31 04:36:00,3.4,-4.0,29.87,West,271,3.0,-999.0,71,-99.99,,,0.00,weatherlink.com 1.10,2013-01-31 10:36:00,
2013-01-31 04:51:00,3.4,-4.0,29.88,NW,309,5.0,-999.0,70,-99.99,,,0.00,weatherlink.com 1.10,2013-01-31 10:51:00,
2013-01-31 05:06:00,3.0,-5.0,29.89,West,271,7.0,-999.0,70,-99.99,,,0.00,weatherlink.com 1.10,2013-01-31 11:06:00,
2013-01-31 05:21:00,2.8,-5.0,29.89,NW,319,7.0,-999.0,71,-99.99,,,0.00,weatherlink.com 1.10,2013-01-31 11:21:00,
2013-01-31 05:36:00,2.6,-5.0,29.89,West,274,3.0,-999.0,71,-99.99,,,0.00,weatherlink.com 1.10,2013-01-31 11:36:00,
2013-01-31 05:51:00,2.4,-5.0,29.91,NW,316,3.0,-999.0,71,-99.99,,,0.00,weatherlink.com 1.10,2013-01-31 11:51:00,
2013-01-31 06:06:00,2.4,-5.0,29.91,NW,308,2.0,-999.0,71,-99.99,,,0.00,weatherlink.com 1.10,2013-01-31 12:06:00,
2013-01-31 06:21:00,2.2,-6.0,29.93,West,274,0.0,-999.0,70,-99.99,,,0.00,weatherlink.com 1.10,2013-01-31 12:21:00,
2013-01-31 06:36:00,1.8,-6.0,29.93,NW,304,4.0,-999.0,70,-99.99,,,0.00,weatherlink.com 1.10,2013-01-31 12:36:00,
2013-01-31 06:51:00,1.8,-6.0,29.94,NW,304,3.0,-999.0,70,-99.99,,,0.00,weatherlink.com 1.10,2013-01-31 12:51:00,
2013-01-31 07:06:00,1.7,-6.0,29.94,WNW,295,9.0,-999.0,70,-99.99,,,0.00,weatherlink.com 1.10,2013-01-31 13:06:00,
2013-01-31 07:21:00,1.1,-6.0,29.95,NW,309,4.0,-999.0,71,-99.99,,,0.00,weatherlink.com 1.10,2013-01-31 13:21:00,
2013-01-31 07:36:00,1.1,-6.0,29.96,NNW,348,1.0,-999.0,71,-99.99,,,0.00,weatherlink.com 1.10,2013-01-31 13:36:00,
2013-01-31 07:51:00,0.9,-7.0,29.97,WNW,290,9.0,-999.0,69,-99.99,,,0.00,weatherlink.com 1.10,2013-01-31 13:51:00,
2013-01-31 08:06:00,0.7,-7.0,29.97,NW,311,4.0,-999.0,69,-99.99,,,0.00,weatherlink.com 1.10,2013-01-31 14:06:00,
2013-01-31 08:21:00,0.5,-8.0,29.98,WSW,247,7.0,-999.0,68,-99.99,,,0.00,weatherlink.com 1.10,2013-01-31 14:21:00,
2013-01-31 08:36:00,0.3,-9.0,29.99,WNW,292,5.0,-999.0,66,-99.99,,,0.00,weatherlink.com 1.10,2013-01-31 14:36:00,
2013-01-31 08:51:00,0.3,-9.0,30.01,NNW,338,6.0,-999.0,65,-99.99,,,0.00,weatherlink.com 1.10,2013-01-31 14:51:00,
2013-01-31 09:06:00,0.0,-9.0,30.01,WNW,291,4.0,-999.0,65,-99.99,,,0.00,weatherlink.com 1.10,2013-01-31 15:06:00,
2013-01-31 09:21:00,-0.2,-9.0,30.02,NNW,345,3.0,-999.0,65,-99.99,,,0.00,weatherlink.com 1.10,2013-01-31 15:21:00,
2013-01-31 09:36:00,0.0,-10.0,30.03,North,349,0.0,-999.0,64,-99.99,,,0.00,weatherlink.com 1.10,2013-01-31 15:36:00,
2013-01-31 09:51:00,0.1,-10.0,30.04,North,356,4.0,-999.0,63,-99.99,,,0.00,weatherlink.com 1.10,2013-01-31 15:51:00,
2013-01-31 10:06:00,0.0,-10.0,30.06,NNW,339,4.0,-999.0,62,-99.99,,,0.00,weatherlink.com 1.10,2013-01-31 16:06:00,
2013-01-31 10:21:00,0.0,-10.0,30.06,NW,326,5.0,-999.0,62,-99.99,,,0.00,weatherlink.com 1.10,2013-01-31 16:21:00,
2013-01-31 10:36:00,0.1,-11.0,30.07,North,352,10.0,-999.0,61,-99.99,,,0.00,weatherlink.com 1.10,2013-01-31 16:36:00,
2013-01-31 10:51:00,0.7,-10.0,30.08,North,349,9.0,-999.0,61,-99.99,,,0.00,weatherlink.com 1.10,2013-01-31 16:51:00,
2013-01-31 11:06:00,1.1,-10.0,30.08,NNW,344,1.0,-999.0,61,-99.99,,,0.00,weatherlink.com 1.10,2013-01-31 17:06:00,
2013-01-31 11:21:00,1.1,-10.0,30.08,WNW,294,3.0,-999.0,61,-99.99,,,0.00,weatherlink.com 1.10,2013-01-31 17:21:00,
2013-01-31 11:36:00,1.3,-10.0,30.09,NW,311,0.0,-999.0,60,-99.99,,,0.00,weatherlink.com 1.10,2013-01-31 17:36:00,
2013-01-31 11:51:00,1.1,-10.0,30.09,NNW,328,1.0,-999.0,60,-99.99,,,0.00,weatherlink.com 1.10,2013-01-31 17:51:00,
2013-01-31 12:06:00,1.5,-10.0,30.09,WNW,286,6.0,-999.0,59,-99.99,,,0.00,weatherlink.com 1.10,2013-01-31 18:06:00,
2013-01-31 12:21:00,1.7,-10.0,30.10,NW,317,5.0,-999.0,59,-99.99,,,0.00,weatherlink.com 1.10,2013-01-31 18:21:00,
2013-01-31 12:36:00,2.2,-9.0,30.10,NNW,330,7.0,-999.0,61,-99.99,,,0.00,weatherlink.com 1.10,2013-01-31 18:36:00,
2013-01-31 12:51:00,2.4,-8.0,30.11,West,281,9.0,-999.0,61,-99.99,,,0.00,weatherlink.com 1.10,2013-01-31 18:51:00,
2013-01-31 13:06:00,1.5,-9.0,30.11,NW,309,6.0,-999.0,63,-99.99,,,0.00,weatherlink.com 1.10,2013-01-31 19:06:00,
2013-01-31 13:21:00,1.7,-9.0,30.12,North,1,6.0,-999.0,62,-99.99,,,0.00,weatherlink.com 1.10,2013-01-31 19:21:00,
2013-01-31 13:36:00,2.2,-8.0,30.13,WNW,303,15.0,-999.0,62,-99.99,,,0.00,weatherlink.com 1.10,2013-01-31 19:36:00,
2013-01-31 13:51:00,1.8,-9.0,30.13,West,278,9.0,-999.0,61,-99.99,,,0.00,weatherlink.com 1.10,2013-01-31 19:51:00,
2013-01-31 14:06:00,1.7,-9.0,30.14,NNW,348,9.0,-999.0,61,-99.99,,,0.00,weatherlink.com 1.10,2013-01-31 20:06:00,
2013-01-31 14:21:00,1.7,-10.0,30.14,NW,313,5.0,-999.0,59,-99.99,,,0.00,weatherlink.com 1.10,2013-01-31 20:21:00,
2013-01-31 14:36:00,1.5,-10.0,30.14,NNW,336,6.0,-999.0,59,-99.99,,,0.00,weatherlink.com 1.10,2013-01-31 20:36:00,
2013-01-31 14:51:00,1.7,-10.0,30.15,NNW,340,4.0,-999.0,57,-99.99,,,0.00,weatherlink.com 1.10,2013-01-31 20:51:00,
2013-01-31 15:06:00,1.7,-10.0,30.16,WNW,297,5.0,-999.0,58,-99.99,,,0.00,weatherlink.com 1.10,2013-01-31 21:06:00,
2013-01-31 15:21:00,1.5,-10.0,30.17,NW,326,0.0,-999.0,59,-99.99,,,0.00,weatherlink.com 1.10,2013-01-31 21:21:00,
2013-01-31 15:36:00,1.7,-10.0,30.18,NW,309,2.0,-999.0,57,-99.99,,,0.00,weatherlink.com 1.10,2013-01-31 21:36:00,
2013-01-31 15:51:00,1.1,-11.0,30.18,NW,325,1.0,-999.0,58,-99.99,,,0.00,weatherlink.com 1.10,2013-01-31 21:51:00,
2013-01-31 16:06:00,0.9,-10.0,30.19,NNW,328,7.0,-999.0,59,-99.99,,,0.00,weatherlink.com 1.10,2013-01-31 22:06:00,
2013-01-31 16:21:00,0.9,-10.0,30.20,WNW,285,14.0,-999.0,59,-99.99,,,0.00,weatherlink.com 1.10,2013-01-31 22:21:00,
2013-01-31 16:36:00,0.5,-11.0,30.21,NNW,339,5.0,-999.0,59,-99.99,,,0.00,weatherlink.com 1.10,2013-01-31 22:36:00,
2013-01-31 16:51:00,0.1,-12.0,30.21,NW,311,0.0,-999.0,58,-99.99,,,0.00,weatherlink.com 1.10,2013-01-31 22:51:00,
2013-01-31 17:06:00,-0.2,-12.0,30.22,NW,316,2.0,-999.0,58,-99.99,,,0.00,weatherlink.com 1.10,2013-01-31 23:06:00,
2013-01-31 17:21:00,-1.0,-12.0,30.23,West,267,2.0,-999.0,60,-99.99,,,0.00,weatherlink.com 1.10,2013-01-31 23:21:00,
2013-01-31 17:36:00,-1.6,-12.0,30.23,West,269,2.0,-999.0,60,-99.99,,,0.00,weatherlink.com 1.10,2013-01-31 23:36:00,
2013-01-31 17:51:00,-2.0,-13.0,30.25,NNW,340,2.0,-999.0,60,-99.99,,,0.00,weatherlink.com 1.10,2013-01-31 23:51:00,
2013-01-31 18:06:00,-2.2,-13.0,30.25,NW,307,3.0,-999.0,60,-99.99,,,0.00,weatherlink.com 1.10,2013-02-01 00:06:00,
2013-01-31 18:21:00,-2.8,-13.0,30.26,West,271,2.0,-999.0,61,-99.99,,,0.00,weatherlink.com 1.10,2013-02-01 00:21:00,
2013-01-31 18:36:00,-3.5,-14.0,30.26,NW,315,13.0,-999.0,61,-99.99,,,0.00,weatherlink.com 1.10,2013-02-01 00:36:00,
2013-01-31 18:51:00,-3.7,-14.0,30.27,WNW,289,3.0,-999.0,61,-99.99,,,0.00,weatherlink.com 1.10,2013-02-01 00:51:00,
2013-01-31 19:06:00,-4.1,-15.0,30.28,NW,324,6.0,-999.0,61,-99.99,,,0.00,weatherlink.com 1.10,2013-02-01 01:06:00,
2013-01-31 19:21:00,-4.3,-15.0,30.28,NNW,333,3.0,-999.0,60,-99.99,,,0.00,weatherlink.com 1.10,2013-02-01 01:21:00,
2013-01-31 19:36:00,-4.6,-15.0,30.29,WNW,297,5.0,-999.0,61,-99.99,,,0.00,weatherlink.com 1.10,2013-02-01 01:36:00,
2013-01-31 19:51:00,-5.0,-15.0,30.30,NW,324,7.0,-999.0,61,-99.99,,,0.00,weatherlink.com 1.10,2013-02-01 01:51:00,
2013-01-31 20:06:00,-5.2,-16.0,30.30,NW,323,2.0,-999.0,61,-99.99,,,0.00,weatherlink.com 1.10,2013-02-01 02:06:00,
2013-01-31 20:21:00,-5.6,-16.0,30.31,NW,307,3.0,-999.0,61,-99.99,,,0.00,weatherlink.com 1.10,2013-02-01 02:21:00,
2013-01-31 20:52:00,-6.1,-17.0,30.32,NW,325,2.0,-999.0,60,-99.99,,,0.00,weatherlink.com 1.10,2013-02-01 02:52:00,
2013-01-31 21:07:00,-6.3,-17.0,30.32,NW,307,1.0,-999.0,60,-99.99,,,0.00,weatherlink.com 1.10,2013-02-01 03:07:00,
2013-01-31 21:22:00,-6.5,-17.0,30.33,WNW,285,7.0,-999.0,59,-99.99,,,0.00,weatherlink.com 1.10,2013-02-01 03:22:00,
2013-01-31 21:37:00,-6.5,-17.0,30.33,West,271,5.0,-999.0,59,-99.99,,,0.00,weatherlink.com 1.10,2013-02-01 03:37:00,
2013-01-31 21:52:00,-6.8,-18.0,30.34,WNW,285,1.0,-999.0,59,-99.99,,,0.00,weatherlink.com 1.10,2013-02-01 03:52:00,
2013-01-31 22:07:00,-7.0,-18.0,30.34,NW,308,4.0,-999.0,59,-99.99,,,0.00,weatherlink.com 1.10,2013-02-01 04:07:00,
2013-01-31 22:22:00,-7.2,-18.0,30.34,NW,324,2.0,-999.0,59,-99.99,,,0.00,weatherlink.com 1.10,2013-02-01 04:22:00,
2013-01-31 22:36:00,-7.2,-18.0,30.34,WNW,289,2.0,-999.0,59,-99.99,,,0.00,weatherlink.com 1.10,2013-02-01 04:36:00,
2013-01-31 22:51:00,-7.5,-18.0,30.35,NW,319,4.0,-999.0,59,-99.99,,,0.00,weatherlink.com 1.10,2013-02-01 04:51:00,
2013-01-31 23:06:00,-7.7,-19.0,30.35,WNW,284,3.0,-999.0,59,-99.99,,,0.00,weatherlink.com 1.10,2013-02-01 05:06:00,
2013-01-31 23:21:00,-7.7,-19.0,30.35,WNW,297,8.0,-999.0,59,-99.99,,,0.00,weatherlink.com 1.10,2013-02-01 05:21:00,
2013-01-31 23:36:00,-7.9,-18.0,30.35,West,262,9.0,-999.0,60,-99.99,,,0.00,weatherlink.com 1.10,2013-02-01 05:36:00,
2013-01-31 23:51:00,-8.2,-19.0,30.35,NNW,335,0.0,-999.0,60,-99.99,,,0.00,weatherlink.com 1.10,2013-02-01 05:51:00,